| time (UTC) | temp F | wind direction | speed knots | gust knots | rain 1hr in | rain 24hr in | rain mn in | humidity % | barometer mb |
| 20260506213418 | 86 | 151 | 0.9 | 6.1 | 0.00 | 0.00 | 0.00 | 67 | 1007.1 |
| 20260506212915 | 85 | 241 | 0.0 | 5.2 | 0.00 | 0.00 | 0.00 | 68 | 1007.1 |
| 20260506212411 | 86 | 176 | 0.9 | 5.2 | 0.00 | 0.00 | 0.00 | 67 | 1006.9 |
| 20260506211906 | 85 | 286 | 0.0 | 3.5 | 0.00 | 0.00 | 0.00 | 67 | 1007.0 |
| 20260506211403 | 86 | 155 | 1.7 | 11.3 | 0.00 | 0.00 | 0.00 | 65 | 1006.9 |
| 20260506210900 | 87 | 285 | 0.0 | 6.1 | 0.00 | 0.00 | 0.00 | 66 | 1007.0 |
| 20260506210356 | 86 | 146 | 0.0 | 3.5 | 0.00 | 0.00 | 0.00 | 65 | 1006.8 |
| 20260506205854 | 85 | 184 | 0.9 | 5.2 | 0.00 | 0.00 | 0.00 | 68 | 1006.8 |
| 20260506205349 | 85 | 201 | 3.5 | 6.1 | 0.00 | 0.00 | 0.00 | 67 | 1007.1 |
| 20260506204846 | 85 | 149 | 2.6 | 8.7 | 0.00 | 0.00 | 0.00 | 68 | 1007.0 |
| 20260506204344 | 84 | 154 | 0.0 | 6.1 | 0.00 | 0.00 | 0.00 | 69 | 1007.2 |
| 20260506203841 | 85 | 171 | 0.0 | 6.1 | 0.00 | 0.00 | 0.00 | 68 | 1007.1 |
| 20260506203338 | 86 | 179 | 2.6 | 5.2 | 0.00 | 0.00 | 0.00 | 67 | 1007.2 |
| 20260506202835 | 85 | 225 | 0.0 | 7.0 | 0.00 | 0.00 | 0.00 | 69 | 1007.4 |
| 20260506202332 | 85 | 185 | 0.0 | 2.6 | 0.00 | 0.00 | 0.00 | 69 | 1007.3 |
| 20260506201829 | 85 | 340 | 0.0 | 6.1 | 0.00 | 0.00 | 0.00 | 69 | 1007.7 |
| 20260506201326 | 84 | 170 | 0.0 | 0.9 | 0.00 | 0.00 | 0.00 | 71 | 1007.9 |
| 20260506200822 | 84 | 174 | 2.6 | 9.6 | 0.00 | 0.00 | 0.00 | 71 | 1007.7 |
| 20260506200318 | 83 | 189 | 3.5 | 9.6 | 0.00 | 0.00 | 0.00 | 71 | 1007.7 |
| 20260506195815 | 83 | 171 | 3.5 | 8.7 | 0.00 | 0.00 | 0.00 | 72 | 1007.6 |
| 20260506195312 | 84 | 75 | 0.0 | 7.0 | 0.00 | 0.00 | 0.00 | 72 | 1007.8 |
| 20260506194809 | 84 | 305 | 5.2 | 9.6 | 0.00 | 0.00 | 0.00 | 70 | 1007.9 |
| 20260506194306 | 84 | 231 | 0.0 | 6.1 | 0.00 | 0.00 | 0.00 | 71 | 1007.9 |
| 20260506193804 | 85 | 130 | 1.7 | 11.3 | 0.00 | 0.00 | 0.00 | 69 | 1007.9 |
| 20260506193300 | 85 | 172 | 3.5 | 7.0 | 0.00 | 0.00 | 0.00 | 70 | 1007.8 |
| 20260506192756 | 84 | 175 | 5.2 | 8.7 | 0.00 | 0.00 | 0.00 | 70 | 1008.2 |
| 20260506192253 | 85 | 154 | 5.2 | 8.7 | 0.00 | 0.00 | 0.00 | 69 | 1008.0 |
| 20260506191750 | 85 | 244 | 0.0 | 2.6 | 0.00 | 0.00 | 0.00 | 69 | 1008.1 |
| 20260506191246 | 84 | 54 | 0.0 | 8.7 | 0.00 | 0.00 | 0.00 | 70 | 1008.1 |
| 20260506190744 | 84 | 168 | 0.9 | 5.2 | 0.00 | 0.00 | 0.00 | 71 | 1008.2 |
| 20260506190240 | 84 | 172 | 3.5 | 3.5 | 0.00 | 0.00 | 0.00 | 71 | 1008.2 |
| 20260506185737 | 83 | 201 | 0.0 | 5.2 | 0.00 | 0.00 | 0.00 | 73 | 1008.6 |
| 20260506185234 | 83 | 221 | 1.7 | 7.0 | 0.00 | 0.00 | 0.00 | 72 | 1008.5 |
| 20260506184731 | 83 | 184 | 0.0 | 2.6 | 0.00 | 0.00 | 0.00 | 72 | 1008.4 |
| 20260506184228 | 83 | 160 | 0.0 | 5.2 | 0.00 | 0.00 | 0.00 | 72 | 1008.4 |
| 20260506183725 | 83 | 165 | 1.7 | 6.1 | 0.00 | 0.00 | 0.00 | 72 | 1008.6 |
| 20260506183221 | 83 | 146 | 0.0 | 5.2 | 0.00 | 0.00 | 0.00 | 72 | 1008.7 |
| 20260506182718 | 84 | 139 | 0.0 | 0.9 | 0.00 | 0.00 | 0.00 | 72 | 1008.6 |
| 20260506182215 | 83 | 165 | 0.9 | 0.9 | 0.00 | 0.00 | 0.00 | 72 | 1008.6 |
| 20260506181713 | 83 | 305 | 0.0 | 6.1 | 0.00 | 0.00 | 0.00 | 73 | 1008.9 |
| 20260506181210 | 84 | 158 | 0.0 | 2.6 | 0.00 | 0.00 | 0.00 | 71 | 1008.8 |
| 20260506180707 | 84 | 186 | 0.0 | 0.0 | 0.00 | 0.00 | 0.00 | 71 | 1008.7 |
| 20260506180203 | 84 | 187 | 0.0 | 5.2 | 0.00 | 0.00 | 0.00 | 70 | 1008.9 |
| 20260506175700 | 84 | 168 | 0.0 | 2.6 | 0.00 | 0.00 | 0.00 | 70 | 1009.0 |
| 20260506175157 | 84 | 224 | 0.0 | 0.9 | 0.00 | 0.00 | 0.00 | 72 | 1008.8 |
| 20260506174654 | 84 | 200 | 1.7 | 6.1 | 0.00 | 0.00 | 0.00 | 70 | 1008.7 |
| 20260506174151 | 84 | 208 | 0.9 | 0.9 | 0.00 | 0.00 | 0.00 | 71 | 1008.9 |
| 20260506173649 | 84 | 195 | 0.0 | 0.9 | 0.00 | 0.00 | 0.00 | 71 | 1008.9 |
| 20260506173145 | 84 | 179 | 0.9 | 0.9 | 0.00 | 0.00 | 0.00 | 70 | 1009.1 |
| 20260506172642 | 83 | 151 | 0.0 | 2.6 | 0.00 | 0.00 | 0.00 | 71 | 1009.0 |
| 20260506172139 | 83 | 153 | 0.0 | 6.1 | 0.00 | 0.00 | 0.00 | 73 | 1009.1 |
| 20260506171631 | 83 | 150 | 6.1 | 8.7 | 0.00 | 0.00 | 0.00 | 72 | 1009.2 |
| 20260506171128 | 83 | 192 | 3.5 | 6.1 | 0.00 | 0.00 | 0.00 | 72 | 1009.4 |
| 20260506170626 | 83 | 171 | 0.0 | 0.9 | 0.00 | 0.00 | 0.00 | 72 | 1009.4 |
| 20260506170123 | 84 | 188 | 4.3 | 6.1 | 0.00 | 0.00 | 0.00 | 70 | 1009.4 |
| 20260506165621 | 84 | 146 | 0.0 | 5.2 | 0.00 | 0.00 | 0.00 | 71 | 1009.3 |
| 20260506165117 | 83 | 320 | 0.0 | 5.2 | 0.00 | 0.00 | 0.00 | 72 | 1009.1 |
| 20260506164614 | 83 | 265 | 0.9 | 7.0 | 0.00 | 0.00 | 0.00 | 73 | 1009.3 |
| 20260506164112 | 82 | 233 | 0.0 | 8.7 | 0.00 | 0.00 | 0.00 | 75 | 1009.1 |
| 20260506163607 | 82 | 141 | 0.0 | 2.6 | 0.00 | 0.00 | 0.00 | 76 | 1009.2 |
| 20260506163103 | 81 | 181 | 0.9 | 3.5 | 0.00 | 0.00 | 0.00 | 77 | 1009.0 |
| 20260506162600 | 81 | 203 | 1.7 | 5.2 | 0.00 | 0.00 | 0.00 | 78 | 1009.3 |
| 20260506162057 | 81 | 161 | 0.0 | 5.2 | 0.00 | 0.00 | 0.00 | 78 | 1009.1 |
| 20260506161554 | 80 | 152 | 0.0 | 0.9 | 0.00 | 0.00 | 0.00 | 80 | 1008.9 |
| 20260506161051 | 80 | 159 | 0.9 | 6.1 | 0.00 | 0.00 | 0.00 | 80 | 1008.7 |
| 20260506160548 | 80 | 123 | 0.0 | 3.5 | 0.00 | 0.00 | 0.00 | 80 | 1009.2 |
| 20260506160045 | 80 | 78 | 0.0 | 0.0 | 0.00 | 0.00 | 0.00 | 81 | 1009.2 |
| 20260506155544 | 80 | 217 | 0.0 | 5.2 | 0.00 | 0.00 | 0.00 | 81 | 1009.1 |
| 20260506153715 | 80 | 160 | 0.0 | 8.7 | 0.00 | 0.00 | 0.00 | 81 | 1008.7 |
| 20260506153213 | 80 | 160 | 0.0 | 3.5 | 0.00 | 0.00 | 0.00 | 81 | 1008.7 |
| 20260506152709 | 79 | 188 | 1.7 | 5.2 | 0.00 | 0.00 | 0.00 | 82 | 1008.5 |
| 20260506152207 | 79 | 181 | 1.7 | 3.5 | 0.00 | 0.00 | 0.00 | 82 | 1008.9 |
| 20260506151706 | 79 | 167 | 0.0 | 6.1 | 0.00 | 0.00 | 0.00 | 82 | 1008.3 |
| 20260506151202 | 79 | 127 | 0.0 | 9.6 | 0.00 | 0.00 | 0.00 | 82 | 1008.4 |
| 20260506150658 | 79 | 149 | 2.6 | 7.0 | 0.00 | 0.00 | 0.00 | 82 | 1008.2 |
| 20260506150156 | 79 | 213 | 1.7 | 6.1 | 0.00 | 0.00 | 0.00 | 82 | 1008.4 |
| 20260506145653 | 79 | 195 | 2.6 | 6.1 | 0.00 | 0.00 | 0.00 | 83 | 1008.4 |
| 20260506145149 | 79 | 140 | 0.0 | 5.2 | 0.00 | 0.00 | 0.00 | 83 | 1008.1 |
| 20260506144647 | 79 | 119 | 0.0 | 5.2 | 0.00 | 0.00 | 0.00 | 83 | 1008.1 |
| 20260506144144 | 79 | 192 | 0.9 | 3.5 | 0.00 | 0.00 | 0.00 | 83 | 1007.9 |
| 20260506143641 | 78 | 146 | 0.0 | 0.9 | 0.00 | 0.00 | 0.00 | 84 | 1008.1 |
| 20260506143139 | 78 | 175 | 0.9 | 3.5 | 0.00 | 0.00 | 0.00 | 84 | 1008.1 |
| 20260506142637 | 78 | 116 | 0.0 | 3.5 | 0.00 | 0.00 | 0.00 | 84 | 1007.9 |
| 20260506142135 | 78 | 158 | 2.6 | 2.6 | 0.00 | 0.00 | 0.00 | 84 | 1008.1 |
| 20260506141632 | 78 | 129 | 0.0 | 2.6 | 0.00 | 0.00 | 0.00 | 84 | 1008.3 |
| 20260506141130 | 78 | 106 | 0.9 | 6.1 | 0.00 | 0.00 | 0.00 | 83 | 1008.3 |
| 20260506140627 | 79 | 162 | 0.0 | 0.0 | 0.00 | 0.00 | 0.00 | 83 | 1008.2 |
| 20260506140125 | 79 | 155 | 0.0 | 0.0 | 0.00 | 0.00 | 0.00 | 83 | 1008.6 |
| 20260506135621 | 79 | 33 | 0.0 | 0.0 | 0.00 | 0.00 | 0.00 | 83 | 1008.4 |
| 20260506135118 | 79 | 181 | 0.0 | 3.5 | 0.00 | 0.00 | 0.00 | 83 | 1008.4 |
| 20260506134615 | 79 | 141 | 0.0 | 3.5 | 0.00 | 0.00 | 0.00 | 83 | 1008.1 |
| 20260506134110 | 78 | 131 | 0.9 | 0.9 | 0.00 | 0.00 | 0.00 | 84 | 1008.3 |
| 20260506133608 | 78 | 206 | 0.0 | 0.9 | 0.00 | 0.00 | 0.00 | 84 | 1008.3 |
| 20260506133104 | 78 | 97 | 1.7 | 2.6 | 0.00 | 0.00 | 0.00 | 85 | 1008.4 |
| 20260506132602 | 78 | 140 | 0.0 | 0.0 | 0.00 | 0.00 | 0.00 | 85 | 1008.3 |
| 20260506132059 | 78 | 147 | 0.0 | 0.9 | 0.00 | 0.00 | 0.00 | 85 | 1008.2 |
| 20260506131556 | 78 | 209 | 0.0 | 0.0 | 0.00 | 0.00 | 0.00 | 86 | 1008.5 |
| 20260506131052 | 78 | 160 | 0.0 | 0.9 | 0.00 | 0.00 | 0.00 | 86 | 1008.4 |
| 20260506130549 | 77 | 164 | 0.0 | 2.6 | 0.00 | 0.00 | 0.00 | 86 | 1008.4 |
| 20260506130047 | 77 | 119 | 0.0 | 0.0 | 0.00 | 0.00 | 0.00 | 86 | 1008.5 |
| 20260506125545 | 77 | 172 | 0.0 | 0.9 | 0.00 | 0.00 | 0.00 | 86 | 1008.5 |
| 20260506125043 | 77 | 91 | 0.0 | 0.0 | 0.00 | 0.00 | 0.00 | 86 | 1008.3 |
| 20260506124540 | 77 | 193 | 0.0 | 0.9 | 0.00 | 0.00 | 0.00 | 86 | 1008.4 |
| 20260506124038 | 77 | 152 | 0.0 | 3.5 | 0.00 | 0.00 | 0.00 | 86 | 1008.1 |
| 20260506123535 | 77 | 131 | 0.9 | 0.9 | 0.00 | 0.00 | 0.00 | 86 | 1008.2 |
| 20260506123034 | 77 | 184 | 1.7 | 3.5 | 0.00 | 0.00 | 0.00 | 86 | 1008.4 |
| 20260506122530 | 77 | 154 | 0.0 | 0.9 | 0.00 | 0.00 | 0.00 | 86 | 1008.1 |
| 20260506122028 | 77 | 158 | 0.9 | 3.5 | 0.00 | 0.00 | 0.00 | 86 | 1007.9 |
| 20260506121525 | 77 | 179 | 0.0 | 7.0 | 0.00 | 0.00 | 0.00 | 86 | 1008.0 |
| 20260506121021 | 77 | 172 | 0.9 | 2.6 | 0.00 | 0.00 | 0.00 | 87 | 1007.9 |
| 20260506120519 | 77 | 169 | 0.0 | 3.5 | 0.00 | 0.00 | 0.00 | 87 | 1007.8 |
| 20260506120017 | 77 | 148 | 0.0 | 0.0 | 0.00 | 0.00 | 0.00 | 87 | 1008.0 |
| 20260506115514 | 77 | 196 | 0.0 | 0.9 | 0.00 | 0.00 | 0.00 | 87 | 1007.7 |
| 20260506115013 | 77 | 174 | 2.6 | 2.6 | 0.00 | 0.00 | 0.00 | 87 | 1007.6 |
| 20260506114509 | 77 | 116 | 0.0 | 0.9 | 0.00 | 0.00 | 0.00 | 87 | 1007.6 |
| 20260506114008 | 76 | 159 | 0.0 | 0.0 | 0.00 | 0.00 | 0.00 | 87 | 1007.5 |
| 20260506113506 | 76 | 142 | 0.0 | 3.5 | 0.00 | 0.00 | 0.00 | 88 | 1007.5 |
| 20260506113003 | 76 | 172 | 0.0 | 2.6 | 0.00 | 0.00 | 0.00 | 88 | 1007.4 |
| 20260506112459 | 76 | 157 | 0.0 | 0.0 | 0.00 | 0.00 | 0.00 | 88 | 1007.1 |
| 20260506111956 | 76 | 155 | 0.0 | 3.5 | 0.00 | 0.00 | 0.00 | 88 | 1007.5 |
| 20260506111454 | 76 | 157 | 0.0 | 2.6 | 0.00 | 0.00 | 0.00 | 88 | 1007.2 |
| 20260506110951 | 76 | 183 | 0.0 | 3.5 | 0.00 | 0.00 | 0.00 | 88 | 1007.3 |
| 20260506110449 | 76 | 188 | 0.0 | 3.5 | 0.00 | 0.00 | 0.00 | 88 | 1007.4 |
| 20260506105945 | 76 | 151 | 0.0 | 2.6 | 0.00 | 0.00 | 0.00 | 88 | 1007.2 |
| 20260506105442 | 76 | 156 | 0.0 | 5.2 | 0.00 | 0.00 | 0.00 | 88 | 1007.4 |
| 20260506104939 | 76 | 166 | 0.0 | 5.2 | 0.00 | 0.00 | 0.00 | 87 | 1007.2 |
| 20260506104437 | 76 | 143 | 0.0 | 2.6 | 0.00 | 0.00 | 0.00 | 87 | 1007.1 |
| 20260506103936 | 76 | 193 | 3.5 | 5.2 | 0.00 | 0.00 | 0.00 | 87 | 1007.2 |
| 20260506103432 | 76 | 168 | 0.0 | 5.2 | 0.00 | 0.00 | 0.00 | 87 | 1007.1 |
| 20260506102929 | 76 | 176 | 0.0 | 2.6 | 0.00 | 0.00 | 0.00 | 87 | 1007.2 |
| 20260506102427 | 76 | 139 | 0.9 | 2.6 | 0.00 | 0.00 | 0.00 | 87 | 1007.4 |
| 20260506101924 | 76 | 107 | 0.9 | 2.6 | 0.00 | 0.00 | 0.00 | 87 | 1007.0 |
| 20260506101420 | 76 | 136 | 0.0 | 5.2 | 0.00 | 0.00 | 0.00 | 86 | 1007.1 |
| 20260506100918 | 76 | 140 | 0.0 | 2.6 | 0.00 | 0.00 | 0.00 | 86 | 1006.9 |
| 20260506100416 | 77 | 149 | 0.9 | 3.5 | 0.00 | 0.00 | 0.00 | 86 | 1006.9 |
| 20260506095913 | 77 | 169 | 0.0 | 2.6 | 0.00 | 0.00 | 0.00 | 86 | 1006.8 |
| 20260506095412 | 77 | 96 | 1.7 | 5.2 | 0.00 | 0.00 | 0.00 | 86 | 1006.7 |
| 20260506094908 | 77 | 128 | 0.9 | 2.6 | 0.00 | 0.00 | 0.00 | 86 | 1007.0 |
| 20260506094407 | 77 | 101 | 0.0 | 0.9 | 0.00 | 0.00 | 0.00 | 86 | 1006.8 |
| 20260506093904 | 77 | 161 | 0.9 | 3.5 | 0.00 | 0.00 | 0.00 | 86 | 1006.8 |
| 20260506093401 | 76 | 167 | 0.9 | 2.6 | 0.00 | 0.00 | 0.00 | 86 | 1007.0 |
| 20260506092859 | 76 | 114 | 0.0 | 3.5 | 0.00 | 0.00 | 0.00 | 86 | 1007.0 |
| 20260506092357 | 76 | 146 | 0.0 | 0.0 | 0.00 | 0.00 | 0.00 | 86 | 1007.0 |
| 20260506091853 | 76 | 168 | 1.7 | 3.5 | 0.00 | 0.00 | 0.00 | 86 | 1007.1 |
| 20260506091352 | 76 | 149 | 0.0 | 2.6 | 0.00 | 0.00 | 0.00 | 86 | 1006.9 |
| 20260506090848 | 76 | 176 | 0.9 | 2.6 | 0.00 | 0.00 | 0.00 | 86 | 1007.0 |
| 20260506090346 | 76 | 189 | 0.0 | 3.5 | 0.00 | 0.00 | 0.00 | 86 | 1007.1 |
| 20260506085843 | 76 | 170 | 2.6 | 3.5 | 0.00 | 0.00 | 0.00 | 86 | 1006.9 |
| 20260506085339 | 77 | 108 | 0.0 | 3.5 | 0.00 | 0.00 | 0.00 | 86 | 1007.2 |
| 20260506084835 | 77 | 162 | 4.3 | 6.1 | 0.00 | 0.00 | 0.00 | 86 | 1007.2 |
| 20260506084332 | 77 | 142 | 2.6 | 3.5 | 0.00 | 0.00 | 0.00 | 85 | 1007.4 |
| 20260506083829 | 77 | 160 | 0.9 | 3.5 | 0.00 | 0.00 | 0.00 | 85 | 1007.1 |
| 20260506083326 | 77 | 108 | 0.0 | 2.6 | 0.00 | 0.00 | 0.00 | 85 | 1007.2 |
| 20260506082823 | 77 | 174 | 0.0 | 6.1 | 0.00 | 0.00 | 0.00 | 85 | 1007.3 |
| 20260506082320 | 77 | 279 | 0.0 | 0.0 | 0.00 | 0.00 | 0.00 | 85 | 1007.2 |
| 20260506081816 | 77 | 172 | 0.9 | 6.1 | 0.00 | 0.00 | 0.00 | 85 | 1007.2 |
| 20260506081314 | 77 | 190 | 3.5 | 5.2 | 0.00 | 0.00 | 0.00 | 85 | 1007.4 |
| 20260506080811 | 77 | 148 | 2.6 | 3.5 | 0.00 | 0.00 | 0.00 | 85 | 1007.3 |
| 20260506080307 | 77 | 174 | 2.6 | 3.5 | 0.00 | 0.00 | 0.00 | 85 | 1007.4 |
| 20260506073246 | 77 | 164 | 0.0 | 0.9 | 0.00 | 0.00 | 0.00 | 85 | 1007.6 |
| 20260506072743 | 77 | 210 | 0.0 | 0.0 | 0.00 | 0.00 | 0.00 | 85 | 1007.8 |
| 20260506072241 | 77 | 163 | 1.7 | 5.2 | 0.00 | 0.00 | 0.00 | 85 | 1008.1 |
| 20260506071738 | 77 | 141 | 0.0 | 2.6 | 0.00 | 0.00 | 0.00 | 84 | 1008.1 |
| 20260506071236 | 77 | 163 | 0.0 | 2.6 | 0.00 | 0.00 | 0.00 | 84 | 1008.0 |
| 20260506070733 | 77 | 210 | 0.0 | 0.9 | 0.00 | 0.00 | 0.00 | 84 | 1008.2 |
| 20260506070229 | 77 | 194 | 0.0 | 0.0 | 0.00 | 0.00 | 0.00 | 84 | 1008.2 |
| 20260506062207 | 77 | 154 | 0.0 | 0.0 | 0.00 | 0.00 | 0.00 | 83 | 1007.9 |
| 20260506061702 | 77 | 190 | 0.0 | 2.6 | 0.00 | 0.00 | 0.00 | 83 | 1007.8 |
| 20260506061200 | 77 | 244 | 0.0 | 5.2 | 0.00 | 0.00 | 0.00 | 83 | 1007.9 |
| 20260506060659 | 77 | 166 | 1.7 | 5.2 | 0.00 | 0.00 | 0.00 | 83 | 1007.9 |
| 20260506060155 | 77 | 263 | 0.0 | 6.1 | 0.00 | 0.00 | 0.00 | 83 | 1007.9 |
| 20260506051127 | 77 | 162 | 0.0 | 0.0 | 0.00 | 0.00 | 0.00 | 82 | 1008.2 |
| 20260506050625 | 77 | 206 | 0.9 | 6.1 | 0.00 | 0.00 | 0.00 | 82 | 1008.1 |
| 20260506050122 | 77 | 160 | 2.6 | 5.2 | 0.00 | 0.00 | 0.00 | 82 | 1008.3 |
| 20260506045115 | 77 | 217 | 0.9 | 5.2 | 0.00 | 0.00 | 0.00 | 82 | 1008.1 |
| 20260506044613 | 77 | 180 | 0.0 | 8.7 | 0.00 | 0.00 | 0.00 | 82 | 1008.0 |
| 20260506044110 | 77 | 122 | 2.6 | 7.0 | 0.00 | 0.00 | 0.00 | 81 | 1008.0 |
| 20260506043607 | 77 | 119 | 0.0 | 9.6 | 0.00 | 0.00 | 0.00 | 81 | 1008.0 |
| 20260506043105 | 78 | 180 | 5.2 | 8.7 | 0.00 | 0.00 | 0.00 | 81 | 1007.8 |
| 20260506042604 | 78 | 169 | 4.3 | 9.6 | 0.00 | 0.00 | 0.00 | 81 | 1008.1 |
| 20260506042102 | 78 | 219 | 0.0 | 6.1 | 0.00 | 0.00 | 0.00 | 81 | 1008.0 |
| 20260506041600 | 77 | 58 | 0.9 | 11.3 | 0.00 | 0.00 | 0.00 | 81 | 1007.8 |
| 20260506041056 | 77 | 298 | 2.6 | 8.7 | 0.00 | 0.00 | 0.00 | 81 | 1007.6 |
| 20260506040555 | 77 | 140 | 6.1 | 6.1 | 0.00 | 0.00 | 0.00 | 81 | 1008.0 |
| 20260506040050 | 77 | 197 | 6.1 | 12.2 | 0.00 | 0.00 | 0.00 | 81 | 1007.7 |
| 20260506035547 | 77 | 169 | 4.3 | 12.2 | 0.00 | 0.00 | 0.00 | 81 | 1007.9 |
| 20260506035044 | 77 | 173 | 3.5 | 11.3 | 0.00 | 0.00 | 0.00 | 82 | 1008.0 |
| 20260506034542 | 77 | 187 | 0.0 | 5.2 | 0.00 | 0.00 | 0.00 | 82 | 1007.8 |
| 20260506034038 | 77 | 20 | 0.0 | 8.7 | 0.00 | 0.00 | 0.00 | 81 | 1007.9 |
| 20260506033536 | 77 | 147 | 1.7 | 9.6 | 0.00 | 0.00 | 0.00 | 81 | 1007.8 |
| 20260506033032 | 77 | 136 | 3.5 | 8.7 | 0.00 | 0.00 | 0.00 | 81 | 1007.8 |
| 20260506032530 | 77 | 185 | 0.0 | 6.1 | 0.00 | 0.00 | 0.00 | 81 | 1007.8 |
| 20260506032026 | 77 | 189 | 0.9 | 8.7 | 0.00 | 0.00 | 0.00 | 82 | 1007.6 |
| 20260506031524 | 77 | 182 | 3.5 | 7.0 | 0.00 | 0.00 | 0.00 | 82 | 1007.6 |
| 20260506031021 | 77 | 163 | 0.0 | 6.1 | 0.00 | 0.00 | 0.00 | 82 | 1007.6 |
| 20260506030519 | 77 | 136 | 0.9 | 5.2 | 0.00 | 0.00 | 0.00 | 82 | 1007.5 |
| 20260506030016 | 77 | 186 | 5.2 | 6.1 | 0.00 | 0.00 | 0.00 | 81 | 1007.5 |
| 20260506025513 | 77 | 181 | 5.2 | 8.7 | 0.00 | 0.00 | 0.00 | 81 | 1007.5 |
| 20260506025009 | 77 | 190 | 0.0 | 2.6 | 0.00 | 0.00 | 0.00 | 81 | 1007.7 |
| 20260506024506 | 77 | 209 | 0.0 | 8.7 | 0.00 | 0.00 | 0.00 | 82 | 1007.4 |
| 20260506024002 | 77 | 162 | 2.6 | 5.2 | 0.00 | 0.00 | 0.00 | 82 | 1007.4 |
| 20260506023458 | 77 | 199 | 0.0 | 6.1 | 0.00 | 0.00 | 0.00 | 82 | 1007.1 |
| 20260506022955 | 77 | 198 | 1.7 | 5.2 | 0.00 | 0.00 | 0.00 | 82 | 1007.1 |
| 20260506022453 | 77 | 160 | 0.0 | 6.1 | 0.00 | 0.00 | 0.00 | 82 | 1007.2 |
| 20260506021951 | 77 | 162 | 0.0 | 0.9 | 0.00 | 0.00 | 0.00 | 82 | 1006.8 |
| 20260506021448 | 77 | 174 | 2.6 | 7.0 | 0.00 | 0.00 | 0.00 | 82 | 1007.0 |
| 20260506020945 | 77 | 168 | 0.0 | 3.5 | 0.00 | 0.00 | 0.00 | 82 | 1006.9 |
| 20260506020443 | 77 | 204 | 4.3 | 7.0 | 0.00 | 0.00 | 0.00 | 82 | 1006.7 |
| 20260506015940 | 77 | 168 | 3.5 | 7.0 | 0.00 | 0.00 | 0.00 | 82 | 1006.7 |
| 20260506015437 | 77 | 168 | 5.2 | 6.1 | 0.00 | 0.00 | 0.00 | 82 | 1006.8 |
| 20260506014934 | 77 | 157 | 0.0 | 5.2 | 0.00 | 0.00 | 0.00 | 81 | 1006.7 |
| 20260506014431 | 77 | 142 | 4.3 | 8.7 | 0.00 | 0.00 | 0.00 | 81 | 1006.7 |
| 20260506013927 | 77 | 240 | 0.0 | 5.2 | 0.00 | 0.00 | 0.00 | 81 | 1006.6 |
| 20260506013426 | 77 | 139 | 0.0 | 6.1 | 0.00 | 0.00 | 0.00 | 81 | 1006.6 |
| 20260506012921 | 78 | 181 | 0.0 | 9.6 | 0.00 | 0.00 | 0.00 | 80 | 1006.3 |
| 20260506012418 | 78 | 193 | 4.3 | 8.7 | 0.00 | 0.00 | 0.00 | 80 | 1006.3 |
| 20260506011915 | 78 | 168 | 0.9 | 5.2 | 0.00 | 0.00 | 0.00 | 80 | 1006.3 |
| 20260506011413 | 78 | 180 | 1.7 | 8.7 | 0.00 | 0.00 | 0.00 | 79 | 1006.1 |
| 20260506010909 | 78 | 134 | 0.0 | 7.0 | 0.00 | 0.00 | 0.00 | 79 | 1006.1 |
| 20260506010408 | 78 | 186 | 3.5 | 7.0 | 0.00 | 0.00 | 0.00 | 78 | 1006.1 |
| 20260506005904 | 78 | 286 | 2.6 | 6.1 | 0.00 | 0.00 | 0.00 | 78 | 1006.2 |
| 20260506005402 | 78 | 249 | 0.0 | 7.0 | 0.00 | 0.00 | 0.00 | 78 | 1006.0 |
| 20260506004857 | 78 | 177 | 2.6 | 8.7 | 0.00 | 0.00 | 0.00 | 78 | 1005.7 |
| 20260506004355 | 78 | 143 | 0.0 | 6.1 | 0.00 | 0.00 | 0.00 | 78 | 1005.8 |
| 20260506003850 | 79 | 166 | 0.0 | 6.1 | 0.00 | 0.00 | 0.00 | 77 | 1005.9 |
| 20260506003347 | 79 | 105 | 1.7 | 2.6 | 0.00 | 0.00 | 0.00 | 77 | 1005.8 |
| 20260506002843 | 79 | 100 | 2.6 | 6.1 | 0.00 | 0.00 | 0.00 | 77 | 1005.8 |
| 20260506002339 | 79 | 180 | 9.6 | 14.8 | 0.00 | 0.00 | 0.00 | 77 | 1005.7 |
| 20260506001835 | 79 | 152 | 3.5 | 11.3 | 0.00 | 0.00 | 0.00 | 77 | 1005.8 |
| 20260506001333 | 79 | 184 | 0.0 | 8.7 | 0.00 | 0.00 | 0.00 | 77 | 1005.7 |
| 20260506000830 | 79 | 175 | 4.3 | 7.0 | 0.00 | 0.00 | 0.00 | 76 | 1005.8 |
| 20260506000330 | 79 | 111 | 6.1 | 11.3 | 0.00 | 0.00 | 0.00 | 76 | 1005.8 |
| 20260505235824 | 79 | 162 | 1.7 | 9.6 | 0.00 | 0.00 | 0.00 | 76 | 1005.9 |
| 20260505235322 | 79 | 183 | 0.9 | 3.5 | 0.00 | 0.00 | 0.00 | 76 | 1005.6 |
| 20260505234818 | 79 | 217 | 0.0 | 3.5 | 0.00 | 0.00 | 0.00 | 76 | 1006.0 |
| 20260505234316 | 79 | 137 | 2.6 | 9.6 | 0.00 | 0.00 | 0.00 | 75 | 1005.9 |
| 20260505233813 | 79 | 170 | 1.7 | 8.7 | 0.00 | 0.00 | 0.00 | 75 | 1006.0 |
| 20260505233311 | 80 | 173 | 2.6 | 9.6 | 0.00 | 0.00 | 0.00 | 75 | 1005.7 |
| 20260505232808 | 80 | 226 | 6.1 | 8.7 | 0.00 | 0.00 | 0.00 | 74 | 1005.9 |
| 20260505232306 | 80 | 286 | 0.0 | 3.5 | 0.00 | 0.00 | 0.00 | 74 | 1006.0 |
| 20260505231802 | 80 | 188 | 0.0 | 9.6 | 0.00 | 0.00 | 0.00 | 74 | 1005.9 |
| 20260505231301 | 80 | 151 | 0.9 | 6.1 | 0.00 | 0.00 | 0.00 | 74 | 1005.8 |
| 20260505230758 | 80 | 165 | 7.8 | 9.6 | 0.00 | 0.00 | 0.00 | 73 | 1005.9 |
| 20260505230255 | 80 | 183 | 0.0 | 3.5 | 0.00 | 0.00 | 0.00 | 73 | 1005.7 |
| 20260505225752 | 80 | 132 | 0.0 | 5.2 | 0.00 | 0.00 | 0.00 | 73 | 1005.8 |
| 20260505225249 | 80 | 180 | 0.0 | 8.7 | 0.00 | 0.00 | 0.00 | 73 | 1005.8 |
| 20260505224743 | 81 | 133 | 2.6 | 14.8 | 0.00 | 0.00 | 0.00 | 72 | 1005.9 |
| 20260505224241 | 81 | 158 | 4.3 | 8.7 | 0.00 | 0.00 | 0.00 | 71 | 1005.9 |
| 20260505223738 | 82 | 174 | 2.6 | 5.2 | 0.00 | 0.00 | 0.00 | 70 | 1005.8 |
| 20260505223234 | 82 | 162 | 1.7 | 3.5 | 0.00 | 0.00 | 0.00 | 69 | 1005.9 |
| 20260505222731 | 82 | 202 | 0.0 | 7.0 | 0.00 | 0.00 | 0.00 | 69 | 1006.2 |
| 20260505222227 | 82 | 162 | 0.9 | 8.7 | 0.00 | 0.00 | 0.00 | 70 | 1006.1 |
| 20260505221725 | 81 | 122 | 0.0 | 6.1 | 0.00 | 0.00 | 0.00 | 70 | 1006.1 |
| 20260505221221 | 81 | 219 | 5.2 | 8.7 | 0.00 | 0.00 | 0.00 | 72 | 1005.9 |
| 20260505220718 | 81 | 151 | 5.2 | 11.3 | 0.00 | 0.00 | 0.00 | 73 | 1005.9 |
| 20260505220216 | 81 | 95 | 0.0 | 9.6 | 0.00 | 0.00 | 0.00 | 74 | 1006.1 |
| 20260505215714 | 80 | 235 | 0.9 | 7.0 | 0.00 | 0.00 | 0.00 | 74 | 1006.2 |
| 20260505215212 | 81 | 166 | 4.3 | 8.7 | 0.00 | 0.00 | 0.00 | 73 | 1006.3 |
| 20260505214709 | 80 | 213 | 2.6 | 3.5 | 0.00 | 0.00 | 0.00 | 72 | 1006.5 |
| 20260505214206 | 80 | 111 | 0.9 | 5.2 | 0.00 | 0.00 | 0.00 | 74 | 1006.5 |
| 20260505213704 | 80 | 192 | 1.7 | 8.7 | 0.00 | 0.00 | 0.00 | 74 | 1006.4 |